Vertical_Velocity
3 -1 -2 -5 -3 3 1 1 -0 2 -4 -4 -1 -2 -0 -3 -2 1 -0 -0 1 -1 -1 3 2 2 -5 -0 -3 2 2 7 4 -1 1 -4 -4 -4 -2 -2 1 0 -4 0 -1
-5 -1 -2 -3 1 -3 -2 -5 5 2 -3 -14 6 -5 -3 4 -4 -8 3 -1 1 -4 1 7 -6 5 2 -4 -1 -3 0 7 -1 1 1 3 -2 -1 3 2 -3 2 2 0 -1
-2 -1 -4 0 -5 1 -2 3 -3 -2 -1 -1 -2 -3 2 -4 4 -5 2 0 -4 1 -3 8 -14 8 3 -2 -0 -2 1 1 2 -1 -2 -0 1 0 -6 1 8 6 -1 6 0
-7 -0 -4 0 -2 0 -4 -3 2 -0 4 -1 -1 -0 2 4 -3 0 -3 -6 2 3 1 -2 2 2 -5 3 1 -1 1 -2 1 2 0 1 -5 -1 4 -1 -2 3 4 1 1
2 -4 -3 -5 1 -2 -1 -4 -1 -1 3 4 -7 -1 -1 -3 3 -1 1 -1 -1 1 -4 5 3 -1 4 -1 -3 2 1 -1 -5 0 -1 -1 0 -6 -6 3 1 -2 5 -4 1
-4 -5 -5 -6 -1 -6 2 -5 -2 2 -3 11 -8 -2 2 2 4 3 -2 -5 -0 -1 -0 5 0 0 4 -2 5 -5 0 -1 -5 0 -2 -1 -3 -6 2 1 3 5 1 1 -0
-1 -6 2 -2 0 0 -2 2 -2 -4 2 0 0 -1 1 1 1 2 -4 -4 -0 -2 -4 8 -6 4 1 1 -3 -3 2 -2 -5 1 -3 2 -1 -21 15 -1 -0 5 6 4 2
0 -2 -2 2 -1 2 2 2 -1 -2 5 -9 3 0 -8 2 -1 2 -5 0 2 -0 -3 5 1 -0 -0 0 -3 5 -3 5 -5 -6 -3 7 -7 17 -7 1 3 -4 -3 -1 3
-2 -2 -3 1 -4 -0 0 -3 1 0 3 0 1 -2 -1 9 -4 6 -7 2 4 -2 -2 2 7 -3 2 -0 -1 -1 -6 3 5 -3 -0 1 -0 18 -4 -0 -1 -0 -5 -4 -4
0 1 1 -3 -2 2 -0 -0 -2 4 4 -3 4 -2 -2 -0 -4 2 -8 4 -2 3 2 -6 7 -0 5 -10 -5 7 -3 -1 -3 8 0 -2 1 -6 -2 4 2 -3 -4 -4 1
-1 -1 -2 -4 -1 2 1 -0 2 8 1 5 -16 -6 6 9 -7 2 -8 -2 6 -2 10 -8 9 -9 6 5 0 -3 2 -2 1 -2 -4 -7 -5 -2 6 2 5 5 1 0 -3
0 -1 -1 -0 -1 -2 -2 -1 -1 -1 -5 -5 -4 5 4 3 -4 -1 4 12 -1 6 3 -11 -16 5 -5 -1 3 -1 1 -2 -2 -4 1 -1 -10 5 3 -4 8 5 -0 -2 1
-1 -1 -1 -1 -2 -1 2 -1 -1 -0 1 0 5 -1 1 -0 -2 2 3 2 7 -0 -1 -4 11 -4 -5 5 2 -2 -1 3 3 9 -7 -4 -30 -5 1 5 9 5 3 2 -1
-1 -1 0 0 0 -0 -1 1 -0 -3 4 -1 2 3 -1 0 3 2 -3 7 1 2 3 6 18 -2 4 3 0 2 5 -1 -5 1 -5 12 -36 -5 -2 17 18 5 1 1 -2
-2 -0 0 0 -1 -0 -0 -2 1 2 5 1 0 -1 -1 1 -6 -1 -2 6 3 1 6 8 5 1 -2 2 -1 6 -4 3 2 -5 5 -2 5 -14 1 -3 -4 3 2 -0 3
-1 1 -1 -1 -1 -2 -1 -1 2 4 1 -2 -3 -1 5 6 2 -1 5 3 -0 2 4 12 0 2 9 -1 1 0 -2 -1 -2 1 10 -12 17 -8 18 31 -6 3 3 6 2
1 -2 -0 -2 -1 -0 -0 1 -2 1 0 2 2 2 2 1 3 4 2 1 8 4 -1 2 1 -1 -3 4 0 1 4 4 8 9 -10 2 10 -10 9 -1 7 2 5 0 1
-2 -2 -1 -1 -1 -0 1 1 3 1 3 2 1 5 7 1 2 1 2 3 -0 -3 1 0 7 4 -1 -8 4 -4 1 0 -2 2 -7 -7 -6 9 -6 -1 4 3 2 4 3
-2 -1 -1 -2 -1 -1 3 1 0 1 -1 1 0 5 -0 1 0 2 1 3 0 -4 12 -0 1 3 -3 -0 -7 0 -4 1 7 -4 6 -10 -9 -18 18 20 -2 -5 -3 -5 -10
-0 -2 -1 -1 -0 2 2 -1 -1 -2 0 4 8 -2 2 -0 1 4 3 -0 -1 -7 3 -3 6 -0 -1 -2 -1 6 1 2 1 2 0 -5 -1 -6 -3 4 2 2 -2 -4 0
-0 -2 1 1 0 3 -1 -2 -2 -2 -1 -3 2 1 1 1 2 -0 -0 -1 1 1 -1 -0 -1 0 -3 -2 6 -1 2 -2 -0 -1 2 1 -9 1 -12 0 1 2 0 -3 -6
-0 -0 -0 0 0 -3 -0 -1 -1 -1 -0 -1 1 0 -1 -0 1 -0 0 -1 -1 0 -3 -1 -2 1 4 -1 0 -3 0 -4 8 2 -5 5 -47 8 8 -0 -1 -1 5 2 -4
-2 2 1 1 -2 -1 -0 -3 -1 2 0 -0 -1 0 1 -1 -0 1 2 -0 1 -1 -2 -4 -3 -0 4 0 -5 -2 -4 -0 -3 -3 -9 13 -21 -6 -4 19 -2 -2 3 -0 -1
-2 1 0 -2 1 1 1 -1 -0 0 -2 -2 -2 -1 2 1 -1 -1 0 -2 -2 -3 -6 -4 -2 -3 -2 13 -0 1 -1 -2 1 6 -10 -11 -29 4 -4 -9 -4 -0 2 0 -1
-0 -2 -0 -7 -2 1 -1 2 0 -1 -2 -1 -1 -0 -1 -1 -1 1 -1 -1 -3 -3 -1 0 -3 -3 -3 -4 -1 -2 -0 -2 -2 -8 9 -15 -12 16 -15 -1 -0 -3 -1 2 -0
-0 -1 -1 -1 -0 2 0 -1 1 -2 0 -1 -0 -1 -1 -0 -0 -2 -1 -1 -3 -3 -1 -6 -0 -2 -4 -6 -3 -3 -6 -8 -5 -0 5 0 -23 -11 14 1 -4 1 6 -3 -2
0 1 -0 -2 -2 -1 -1 -1 -0 -0 1 -0 1 2 0 -3 -0 -3 -2 -3 -3 1 1 -5 -3 1 -6 -2 1 -5 -11 -2 0 -7 1 -4 -18 4 3 -5 -4 6 2 1 -2
Height
3129 3131 3133 3136 3139 3140 3141 3143 3144 3145 3145 3148 3149 3151 3151 3152 3153 3154 3155 3156 3157 3158 3160 3160 3162 3163 3165 3166 3167 3169 3172 3171 3172 3172 3173 3171 3171 3171 3173 3175 3177 3178 3180 3181 3181
3124 3126 3128 3131 3135 3136 3137 3139 3140 3141 3142 3145 3145 3148 3149 3149 3151 3151 3153 3153 3154 3155 3158 3160 3160 3161 3163 3165 3166 3167 3170 3170 3170 3169 3171 3171 3171 3171 3173 3173 3175 3176 3178 3179 3180
3117 3119 3121 3123 3126 3131 3132 3135 3136 3136 3139 3141 3141 3144 3146 3147 3148 3149 3149 3150 3151 3152 3154 3156 3159 3159 3161 3162 3164 3164 3168 3167 3168 3168 3169 3169 3171 3171 3172 3174 3173 3175 3175 3177 3178
3109 3111 3112 3115 3118 3123 3126 3128 3131 3132 3133 3135 3137 3140 3143 3143 3148 3145 3146 3147 3148 3149 3151 3153 3155 3157 3159 3160 3161 3162 3163 3164 3166 3166 3167 3168 3168 3170 3170 3172 3171 3171 3173 3174 3176
3103 3104 3106 3107 3109 3113 3119 3122 3125 3127 3128 3129 3132 3136 3138 3139 3141 3142 3143 3144 3146 3146 3148 3150 3152 3153 3156 3157 3159 3159 3160 3161 3162 3164 3165 3166 3166 3167 3168 3169 3169 3170 3170 3172 3174
3096 3098 3100 3100 3101 3104 3109 3114 3119 3120 3123 3123 3126 3130 3133 3135 3136 3137 3139 3142 3143 3144 3145 3147 3148 3150 3152 3154 3156 3155 3156 3157 3159 3161 3162 3163 3163 3164 3167 3167 3167 3167 3168 3168 3169
3088 3091 3092 3094 3095 3097 3101 3105 3110 3113 3115 3119 3119 3124 3125 3130 3130 3132 3135 3138 3140 3141 3142 3143 3145 3148 3148 3149 3150 3151 3154 3153 3155 3158 3159 3159 3159 3159 3163 3162 3163 3164 3164 3165 3166
3082 3084 3087 3089 3089 3091 3094 3097 3103 3106 3108 3112 3113 3118 3120 3123 3124 3127 3131 3133 3134 3137 3138 3138 3142 3144 3145 3145 3148 3149 3150 3151 3151 3153 3154 3156 3156 3158 3155 3157 3159 3160 3161 3162 3162
3077 3079 3081 3083 3084 3087 3089 3092 3094 3098 3102 3105 3110 3114 3115 3116 3118 3121 3127 3128 3130 3132 3134 3135 3137 3139 3143 3143 3147 3144 3146 3147 3149 3148 3149 3151 3152 3151 3151 3151 3153 3155 3157 3158 3159
3072 3074 3076 3079 3080 3082 3084 3086 3088 3092 3095 3098 3102 3108 3108 3108 3112 3115 3120 3123 3125 3127 3131 3132 3133 3134 3136 3140 3141 3141 3142 3143 3144 3144 3144 3146 3147 3146 3148 3147 3147 3148 3151 3152 3153
3067 3069 3072 3075 3076 3077 3081 3084 3088 3089 3089 3093 3097 3100 3103 3103 3107 3109 3114 3119 3120 3121 3124 3127 3129 3126 3133 3134 3135 3138 3138 3138 3140 3140 3139 3140 3139 3141 3141 3141 3142 3143 3144 3145 3146
3062 3065 3068 3070 3072 3074 3076 3079 3081 3082 3085 3087 3091 3094 3095 3097 3101 3105 3107 3112 3112 3116 3118 3120 3121 3127 3124 3128 3128 3132 3133 3134 3136 3135 3135 3135 3129 3135 3135 3134 3137 3135 3135 3137 3138
3060 3062 3065 3067 3069 3072 3074 3076 3077 3078 3082 3083 3083 3086 3089 3094 3096 3099 3102 3102 3106 3110 3111 3113 3119 3118 3120 3122 3123 3125 3128 3130 3131 3131 3128 3129 3116 3126 3130 3128 3128 3127 3129 3128 3129
3056 3059 3062 3064 3069 3069 3071 3073 3075 3077 3080 3079 3080 3080 3083 3086 3091 3092 3096 3100 3102 3104 3107 3109 3113 3113 3115 3116 3119 3120 3122 3122 3124 3126 3126 3127 3107 3120 3124 3124 3124 3124 3121 3121 3121
3053 3056 3059 3062 3064 3067 3070 3071 3073 3076 3075 3076 3074 3076 3079 3084 3084 3086 3090 3093 3096 3099 3104 3105 3104 3106 3109 3111 3111 3118 3116 3120 3119 3121 3123 3121 3117 3114 3115 3117 3117 3114 3113 3113 3114
3050 3053 3056 3060 3062 3066 3068 3070 3073 3076 3072 3073 3074 3076 3078 3078 3080 3082 3085 3089 3092 3097 3098 3100 3100 3103 3105 3104 3108 3110 3114 3116 3117 3120 3114 3114 3113 3109 3110 3109 3109 3109 3108 3107 3107
3048 3050 3054 3057 3061 3064 3067 3070 3074 3072 3073 3074 3074 3075 3077 3079 3081 3082 3083 3087 3093 3096 3095 3098 3100 3100 3102 3105 3106 3109 3111 3111 3113 3113 3103 3106 3106 3103 3106 3107 3107 3102 3102 3103 3103
3046 3049 3051 3054 3058 3061 3065 3070 3070 3067 3067 3068 3070 3073 3076 3078 3079 3081 3084 3087 3087 3090 3091 3095 3098 3099 3097 3101 3105 3107 3108 3105 3104 3098 3097 3102 3097 3099 3099 3097 3097 3098 3098 3097 3097
3044 3047 3049 3052 3056 3060 3065 3066 3064 3065 3066 3068 3071 3074 3075 3077 3079 3081 3083 3085 3084 3087 3093 3093 3096 3095 3094 3095 3101 3103 3104 3106 3107 3107 3106 3098 3094 3096 3096 3095 3091 3093 3093 3094 3095
3041 3044 3047 3049 3053 3057 3062 3062 3063 3064 3066 3068 3071 3073 3076 3077 3080 3081 3082 3083 3083 3086 3089 3091 3094 3093 3094 3096 3097 3099 3102 3104 3105 3104 3097 3089 3088 3090 3089 3088 3088 3088 3088 3089 3088
3039 3042 3044 3047 3051 3056 3057 3060 3063 3064 3065 3068 3069 3070 3072 3074 3076 3078 3081 3083 3084 3086 3087 3089 3090 3093 3094 3095 3097 3100 3100 3101 3101 3102 3097 3090 3083 3082 3084 3085 3084 3086 3085 3083 3081
3037 3040 3041 3044 3050 3051 3054 3057 3060 3062 3064 3066 3067 3069 3071 3073 3075 3077 3080 3080 3082 3084 3086 3088 3089 3091 3094 3094 3095 3095 3098 3099 3098 3097 3098 3096 3074 3081 3081 3079 3082 3083 3082 3079 3073
3035 3037 3040 3043 3046 3048 3051 3055 3058 3061 3062 3065 3066 3068 3070 3072 3077 3077 3077 3078 3080 3082 3083 3086 3090 3090 3091 3095 3092 3093 3094 3095 3095 3094 3093 3093 3071 3075 3078 3078 3078 3076 3074 3069 3064
3035 3036 3038 3040 3043 3047 3050 3053 3056 3058 3060 3063 3065 3067 3069 3071 3073 3075 3076 3076 3078 3079 3082 3086 3087 3088 3088 3090 3090 3090 3090 3090 3090 3089 3087 3078 3066 3077 3076 3073 3070 3067 3064 3061 3056
3032 3033 3035 3038 3042 3045 3049 3051 3054 3056 3058 3061 3063 3065 3068 3071 3072 3073 3074 3076 3077 3079 3080 3082 3083 3084 3084 3085 3085 3084 3084 3085 3083 3081 3080 3075 3066 3069 3071 3066 3062 3059 3057 3053 3049
3031 3033 3035 3037 3041 3043 3046 3049 3053 3054 3057 3059 3062 3063 3065 3068 3070 3071 3071 3073 3075 3076 3076 3076 3079 3078 3079 3079 3078 3075 3076 3073 3072 3072 3071 3070 3057 3062 3064 3060 3056 3052 3050 3045 3042
3029 3032 3035 3037 3039 3043 3045 3048 3051 3053 3056 3057 3060 3061 3063 3064 3065 3066 3068 3069 3071 3073 3074 3075 3076 3077 3074 3074 3073 3068 3061 3062 3065 3065 3064 3062 3056 3057 3052 3053 3048 3044 3043 3039 3035